Simultaneous Nadir Overpasses (SNOs) Predictions

Prediction of SNOs between GOES-17 and METOP-B Satellite Orbit:

Table of predicted SNOs for the next 14.0 days since TLE Epoch: 10/15/2022
Index Date Time (GOES-17) GOES-17 Lat,Lon METOP-B Lat,Lon Distance(km) Time Diff (sec)
1 10/15/2022 06:37:02 0.09,-137.33 0.27,-136.46 98.87 80
2 10/16/2022 18:53:14 -0.08,-137.34 0.75,-141.02 420.15 80
3 10/17/2022 18:35:16 -0.08,-137.33 -0.39,-136.03 148.46 80
4 10/19/2022 06:51:37 0.08,-137.31 -0.64,-140.63 377.58 80
5 10/20/2022 06:33:38 0.07,-137.30 0.44,-135.63 190.75 80
6 10/21/2022 18:49:50 -0.07,-137.30 0.57,-140.19 329.12 80
7 10/22/2022 18:31:50 -0.07,-137.29 -0.51,-135.19 238.96 80
8 10/24/2022 06:50:52 0.07,-137.26 -0.50,-139.79 287.85 80
9 10/25/2022 06:30:12 0.07,-137.25 0.59,-134.79 279.78 80
10 10/26/2022 18:46:25 -0.07,-137.23 0.42,-139.35 241.49 80
11 10/27/2022 18:28:26 -0.07,-137.21 -0.73,-134.36 325.55 80
